"Pseudo-MPEC" for P122GVe

Created 2024 Dec 1 9:31:16 UT using Find_Orb

Click here for an explanation of pseudo-MPECs

 
 Astrometry: 
     P122GVe* C2024 11 29.39215202 57 45.276+41 17 38.50   ~BTD2 22.00wXNEOCPF51
     P122GVe  C2024 11 29.40431602 57 44.322+41 17 27.27   ~BTD2 21.54wXNEOCPF51
     P122GVe  C2024 11 29.41644202 57 43.409+41 17 15.83   ~BTD2 21.96wXNEOCPF51
     P122GVe  C2024 11 29.42849902 57 42.483+41 17 04.46   ~BTD2 22.25wXNEOCPF51
     P122GVe  C2024 11 29.54418502 57 33.784+41 15 14.71   ~BTL2 21.74GVNEOCPF52
     P122GVe  C2024 11 29.54481502 57 33.751+41 15 14.14   ~BTL2 21.45GVNEOCPF52
     P122GVe 1C2024 11 29.86661002 57 11.599+41 10 13.90   ~BTMH 21.5 GXNEOCP033
     P122GVe 1C2024 11 29.87020002 57 11.279+41 10 10.50   ~BTMH 21.6 GXNEOCP033
     P122GVe 1C2024 11 29.87382002 57 10.998+41 10 07.29   ~BTMH 21.6 GXNEOCP033
     P122GVe 1C2024 11 29.87749002 57 10.739+41 10 03.80   ~BTMH 21.9 GXNEOCP033
     P122GVe KC2024 11 30.14575402 56 51.84 +41 05 54.8    ~BU42 21.7 GVNEOCPH21
     P122GVe KC2024 11 30.14860802 56 51.63 +41 05 52.2    ~BU42 21.7 GVNEOCPH21
     P122GVe KC2024 11 30.15175802 56 51.40 +41 05 49.5    ~BU42 21.7 GVNEOCPH21

Station data:
(033) Karl Schwarzschild Observatory, Tautenburg  (N50.980139 E11.711240)
   Germany.  Observer B. Stecklum. 1.34-m f/3 Schmidt + CCD.
(F51) Pan-STARRS 1, Haleakala  (N20.707234 W156.255910)  US/Hawaii.
   Observers J. Bulger, T. Lowe, A. Schultz, M. Willman. Measurers K.
   Chambers, S. Chastel, T. de Boer, L. Denneau, J. Fairlamb, H. Flewelling,
   M. Huber, C.-C. Lin, E. Magnier, Y. Ramanjooloo, R. Wainscoat, R. Weryk.
   1.8-m Ritchey-Chrétien + CCD.
(F52) Pan-STARRS 2, Haleakala  (N20.707382 W156.255910)  US/Hawaii.
   Observers J. Bulger, T. Dukes, T. Lowe, A. Schultz, M. Willman. Measurers
   K. Chambers, S. Chastel, T. de Boer, L. Denneau, J. Fairlamb, H.
   Flewelling, M. Huber, C.-C. Lin, E. Magnier, Y. Ramanjooloo, R. Wainscoat,
   R. Weryk. 1.8-m Ritchey-Chrétien + CCD.
(H21) Astronomical Research Observatory, Westfield  (N39.483054 W87.968270)
   US/Illinois.  Observer R. Holmes. Measurers S. Foglia, L. Buzzi, T.
   Linder, R. Holmes. 0.76-m f/3.0 astrograph + CCD0.81-m f/4.0 astrograph +
   CCD0.61-m f/4.5 astrograph + CCD0.40-m f/5.32 astrograph + CCD.

Orbital elements:  P122GVe
   Perihelion 2025 Apr 26.34756 +/- 231 TT =  8:20:29 (JD 2460791.84756)
Epoch 2024 Nov 30.0 TT = JDT 2460644.5   Earth MOID: 0.5035   Ma: 0.0007
M 325.47451344 +/- 80               (J2000 ecliptic)             AutoNEOCP
n   0.23431326 +/- 0.0432           Peri.  220.17155 +/- 60
a   2.60578234 +/- 0.32             Node   280.24967 +/- 8
e   0.4451175 +/- 0.126             Incl.   18.46805 +/- 1.6
P   4.20637                H 19.64  G  0.15   U 10.7  SR
q 1.44590282 +/- 0.201    Q 3.76566187 +/- 0.475
From 13 observations 2024 Nov. 29-30 (18.2 hr); mean residual 0".27
Residuals in arcseconds: 
241129 F51  .30+  .21+    241129 F52  .19-  .32-    241130 H21  .27+  .28+    
241129 F51  .01+  .27+    241129 033  .40+  .17-    241130 H21  .29+  .34+    
241129 F51  .13+  .11+    241129 033  .22-  .24-    241130 H21  .33+  .59+    
241129 F51  .02+  .01-    241129 033  .36-  .09-    
241129 F52  .34-  .35-    241129 033  .22-  .17-    

Ephemerides (geocentric):
Date (UTC) HH   RA             Dec           delta  r     elong  mag " sig PA
---- --------  ------------   ------------  ------ ------ -----  --- --------
2024 12 01 10  02 55 23.562   +40 45 41.56  1.0142 1.9424 152.4 21.9 12.1 143
2024 12 01 11  02 55 20.725   +40 45 01.17  1.0140 1.9422 152.4 21.9 12.7 143
2024 12 01 12  02 55 17.890   +40 44 20.74  1.0139 1.9420 152.3 21.9 13.4 143
2024 12 01 13  02 55 15.060   +40 43 40.28  1.0138 1.9418 152.3 21.9 14.0 143
2024 12 01 14  02 55 12.232   +40 42 59.77  1.0137 1.9415 152.3 21.9 14.7 143
2024 12 01 15  02 55 09.408   +40 42 19.22  1.0136 1.9413 152.3 21.9 15.4 143
2024 12 01 16  02 55 06.588   +40 41 38.64  1.0135 1.9411 152.2 21.9 16.1 143
2024 12 01 17  02 55 03.771   +40 40 58.02  1.0134 1.9409 152.2 21.9 16.8 144
2024 12 01 18  02 55 00.957   +40 40 17.35  1.0132 1.9407 152.2 21.9 17.6 144
2024 12 01 19  02 54 58.147   +40 39 36.65  1.0131 1.9405 152.2 21.9 18.3 144
2024 12 01 20  02 54 55.341   +40 38 55.92  1.0130 1.9402 152.1 21.9 19.1 144
2024 12 01 21  02 54 52.538   +40 38 15.14  1.0129 1.9400 152.1 21.9 19.8 144
2024 12 01 22  02 54 49.738   +40 37 34.32  1.0128 1.9398 152.1 21.9 20.6 144
2024 12 01 23  02 54 46.942   +40 36 53.47  1.0127 1.9396 152.1 21.9 21.4 144
2024 12 02 00  02 54 44.149   +40 36 12.58  1.0126 1.9394 152.0 21.9 22.3 144
2024 12 02 01  02 54 41.360   +40 35 31.65  1.0125 1.9392 152.0 21.9 23.1 144
2024 12 02 02  02 54 38.575   +40 34 50.68  1.0123 1.9389 152.0 21.9 24.0 144
2024 12 02 03  02 54 35.793   +40 34 09.68  1.0122 1.9387 152.0 21.9 24.8 144
2024 12 02 04  02 54 33.015   +40 33 28.63  1.0121 1.9385 152.0 21.9 25.7 144
2024 12 02 05  02 54 30.240   +40 32 47.55  1.0120 1.9383 151.9 21.9 26.6 144
2024 12 02 06  02 54 27.469   +40 32 06.44  1.0119 1.9381 151.9 21.9 27.5 144
2024 12 02 07  02 54 24.701   +40 31 25.28  1.0118 1.9378 151.9 21.9 28.4 144
2024 12 02 08  02 54 21.937   +40 30 44.09  1.0117 1.9376 151.9 21.9 29.4 144
2024 12 02 09  02 54 19.177   +40 30 02.86  1.0116 1.9374 151.8 21.9 30.3 144
2024 12 02 10  02 54 16.420   +40 29 21.59  1.0115 1.9372 151.8 21.9 31.3 144
2024 12 02 11  02 54 13.667   +40 28 40.28  1.0114 1.9370 151.8 21.9 32.3 145
2024 12 02 12  02 54 10.917   +40 27 58.94  1.0113 1.9368 151.8 21.9 33.3 145
2024 12 02 13  02 54 08.172   +40 27 17.56  1.0112 1.9365 151.7 21.9 34.3 145
2024 12 02 14  02 54 05.429   +40 26 36.14  1.0110 1.9363 151.7 21.9 35.3 145
2024 12 02 15  02 54 02.691   +40 25 54.69  1.0109 1.9361 151.7 21.9 36.4 145
2024 12 02 16  02 53 59.956   +40 25 13.20  1.0108 1.9359 151.6 21.9 37.4 145
2024 12 02 17  02 53 57.225   +40 24 31.68  1.0107 1.9357 151.6 21.9 38.5 145
2024 12 02 18  02 53 54.497   +40 23 50.11  1.0106 1.9355 151.6 21.9 39.6 145
2024 12 02 19  02 53 51.773   +40 23 08.51  1.0105 1.9352 151.6 21.9 40.7 145
2024 12 02 20  02 53 49.053   +40 22 26.88  1.0104 1.9350 151.5 21.9 41.8 145
2024 12 02 21  02 53 46.336   +40 21 45.20  1.0103 1.9348 151.5 21.9 43.0 145
2024 12 02 22  02 53 43.624   +40 21 03.50  1.0102 1.9346 151.5 21.9 44.1 145
2024 12 02 23  02 53 40.915   +40 20 21.75  1.0101 1.9344 151.5 21.9 45.3 145
2024 12 03 00  02 53 38.209   +40 19 39.97  1.0100 1.9342 151.4 21.9 46.5 145
2024 12 03 01  02 53 35.508   +40 18 58.15  1.0099 1.9339 151.4 21.9 47.6 145
2024 12 03 02  02 53 32.810   +40 18 16.30  1.0098 1.9337 151.4 21.9 48.9 145
2024 12 03 03  02 53 30.116   +40 17 34.41  1.0097 1.9335 151.4 21.9 50.1 145
2024 12 03 04  02 53 27.426   +40 16 52.49  1.0096 1.9333 151.3 21.9 51.3 145
2024 12 03 05  02 53 24.739   +40 16 10.53  1.0095 1.9331 151.3 21.9 52.6 145
2024 12 03 06  02 53 22.057   +40 15 28.53  1.0094 1.9329 151.3 21.9 53.8 145
2024 12 03 07  02 53 19.378   +40 14 46.50  1.0093 1.9326 151.3 21.9 55.1 145
2024 12 03 08  02 53 16.703   +40 14 04.43  1.0092 1.9324 151.2 21.9 56.4 145
2024 12 03 09  02 53 14.032   +40 13 22.33  1.0091 1.9322 151.2 21.9 57.7 145